Weather Roundup
Issued by NWS Corpus Christi, TX

Home | Current Version | Previous Version | Text Only | Print | Product List | Glossary On
Versions: 1 2 3 4 5 6 7 8 9 10 11 12 13 14 15 16 17 18 19 20 21 22 23 24 25 26 27 28 29 30 31 32 33 34 35 36 37 38 39 40 41 42 43 44 45 46 47 48 49 50
000
ASUS44 KCRP 010110
HRRCRP

SOUTH TEXAS REGIONAL WEATHER ROUNDUP
NATIONAL WEATHER SERVICE CORPUS CHRISTI TX
800 PM CDT WED AUG 31 2016


TXZ229>244-010200-
...CORPUS CHRISTI AREA OBSERVATIONS...

CITY           SKY/WX    TMP DP  RH WIND       PRES   REMARKS
CORPUS CHRISTI MOCLDY    81  74  79 N7        29.87R
NAS CORPUS CHR MOCLDY    84  78  82 N8        29.86S HX  95
ROCKPORT       CLOUDY    80  74  81 N3        29.86S
KINGSVILLE NAS CLOUDY    83  76  79 NE7       29.87R HX  91
ALICE          PTCLDY    82  73  74 NE10      29.88R
FALFURRIAS     CLOUDY    81  74  80 CALM      29.87S
$$

...VICTORIA AREA OBSERVATIONS...

CITY           SKY/WX    TMP DP  RH WIND       PRES   REMARKS
VICTORIA       CLOUDY    81  75  82 CALM      29.87R
BEEVILLE       CLOUDY    77  77 100 CALM      29.88F
PLEASANTON     PTCLDY    80  74  81 CALM      29.91R
SAN ANTONIO    CLOUDY    84  71  65 CALM      29.92S
$$

...LAREDO AREA OBSERVATIONS...

CITY           SKY/WX    TMP DP  RH WIND       PRES   REMARKS
LAREDO         PTCLDY    89  68  49 N8        29.88R HX  93
COTULLA        PTCLDY    87  69  54 E18G24    29.91R HX  91
DEL RIO        CLOUDY    82  74  76 CALM      29.93R
MCALLEN        MOCLDY    91  70  49 E10       29.87R HX  96
HEBBRONVILLE   PTCLDY    84  71  63 SE7       29.91R
$$

...OTHER TEXAS OBSERVATIONS...

CITY           SKY/WX    TMP DP  RH WIND       PRES   REMARKS
BROWNSVILLE    MOCLDY    84  76  76 NE12      29.86R HX  93
HOUSTON        PTCLDY    81  75  82 W3        29.86R
COL. STATION   CLEAR     88  72  58 NE7       29.88R HX  94
AUSTIN         PTCLDY    87  71  58 E6        29.89R HX  93
WACO           CLEAR     86  72  62 E5        29.92R HX  92
FORT WORTH     PTCLDY    88  69  53 NE5       29.92R HX  92
WICHITA FALLS  CLOUDY    78  69  73 N15       30.00R
LUBBOCK        MOCLDY    69  65  86 NE5       30.14R
EL PASO        PTCLDY    79  64  60 E7        30.09R
$$

...MARINE OBSERVATIONS...

STATION/POSITION TIME  SKY/WX   TEMP    WIND        PRES    VSBY  WAVE   SWELL
                                AIR SEA DIR/SP/G                  HT/PER HT/PER
                 (UTC)          (F)     (DEG/KT/KT) (MB)    (MI)  (FT/S) (FT/S)
PORT ARANSAS     0100            83 86  360/  5/  5 1011.5R
BUOY 90 E PORT A 0050            85 86   20/  6/  8 1010.7R         6/ 8   7/ 8
BUOY 45 SE BAFFI 0050            85 86   50/ 10/ 12 1010.6R         4/ 8   3/ 8
BUOY 200 E PT IS 0050            86 87   30/ 14/ 17 1008.5R         5/ 8   3/ 8
BUOY 15 E GALVES 0050            87 87  290/  4/  4 1010.8R         2/ 8   2/ 8
$$



USA.gov is the U.S. government's official web portal to all federal, state and local government web resources and services.